• In Hungary
  • List of Countries
  • For 7 days
  • Water Temperature
  • Satellite Maps
  • Weather Map
  • News
  • Weather Widgets
  • user-avatar
    Login

    Hourly Weather Baranivka

    Today, 24 January, Wednesday

    Time Temperature Precipitation Wind Pressure Humidity
    00:00 -11°C° 0 mm 1 mps 745 mmHg 85%
    01:00 -11°C° 0 mm 1 mps 745 mmHg 84%
    02:00 -12°C° 0 mm 1 mps 745 mmHg 82%
    03:00 -12°C° 0 mm 1 mps 745 mmHg 82%
    04:00 -12°C° 0 mm 1 mps 745 mmHg 82%
    05:00 -11°C° 0 mm 1 mps 745 mmHg 81%
    06:00 -13°C° 0 mm 2 mps 745 mmHg 82%
    07:00 -13°C° 0 mm 2 mps 745 mmHg 82%
    08:00 -13°C° 0 mm 2 mps 746 mmHg 83%
    09:00 -13°C° 0 mm 3 mps 746 mmHg 82%
    10:00 -12°C° 0 mm 3 mps 746 mmHg 80%
    11:00 -9°C° 0 mm 3 mps 746 mmHg 79%
    12:00 -10°C° 0 mm 4 mps 745 mmHg 79%
    13:00 -9°C° 0 mm 4 mps 745 mmHg 78%
    14:00 -8°C° 0 mm 4 mps 745 mmHg 78%
    15:00 -9°C° 0 mm 4 mps 745 mmHg 80%
    16:00 -8°C° 0 mm 3 mps 745 mmHg 82%
    17:00 -9°C° 0 mm 3 mps 745 mmHg 84%
    18:00 -9°C° 0 mm 3 mps 744 mmHg 83%
    19:00 -9°C° 0 mm 3 mps 744 mmHg 83%
    20:00 -10°C° 0 mm 4 mps 744 mmHg 82%
    21:00 -10°C° 0 mm 4 mps 744 mmHg 83%
    22:00 -9°C° 0 mm 3 mps 744 mmHg 83%
    23:00 -9°C° 0 mm 3 mps 744 mmHg 84%

    Tomorrow, 25 January, Thursday

    Time Temperature Precipitation Wind Pressure Humidity
    00:00 -9°C° 0 mm 3 mps 744 mmHg 85%
    01:00 -10°C° 0 mm 3 mps 744 mmHg 85%
    02:00 -10°C° 0 mm 3 mps 743 mmHg 86%
    03:00 -10°C° 0 mm 3 mps 743 mmHg 86%
    04:00 -12°C° 0 mm 3 mps 743 mmHg 87%
    05:00 -12°C° 0 mm 3 mps 743 mmHg 88%
    06:00 -10°C° 0 mm 3 mps 743 mmHg 87%
    07:00 -10°C° 0 mm 3 mps 743 mmHg 87%
    08:00 -10°C° 0 mm 3 mps 743 mmHg 86%
    09:00 -10°C° 0 mm 4 mps 743 mmHg 85%
    10:00 -9°C° 0 mm 4 mps 743 mmHg 84%
    11:00 -8°C° 0 mm 4 mps 743 mmHg 83%
    12:00 -8°C° 0 mm 4 mps 743 mmHg 83%
    13:00 -7°C° 0 mm 4 mps 742 mmHg 83%
    14:00 -7°C° 0 mm 4 mps 742 mmHg 83%
    15:00 -7°C° 0 mm 4 mps 742 mmHg 84%
    16:00 -8°C° 0 mm 4 mps 742 mmHg 86%
    17:00 -9°C° 0 mm 4 mps 741 mmHg 88%
    18:00 -9°C° 0 mm 4 mps 741 mmHg 88%
    19:00 -9°C° 0 mm 4 mps 741 mmHg 89%
    20:00 -10°C° 0 mm 4 mps 741 mmHg 90%
    21:00 -11°C° 0 mm 5 mps 742 mmHg 89%
    22:00 -11°C° 0 mm 5 mps 742 mmHg 88%
    23:00 -11°C° 0 mm 5 mps 742 mmHg 88%

    Day after tomorrow, 26 January, Friday

    Time Temperature Precipitation Wind Pressure Humidity
    00:00 -11°C° 0 mm 5 mps 742 mmHg 87%
    01:00 -11°C° 0 mm 6 mps 742 mmHg 85%
    02:00 -11°C° 0 mm 6 mps 742 mmHg 84%
    03:00 -11°C° 0 mm 6 mps 741 mmHg 83%
    04:00 -11°C° 0 mm 6 mps 741 mmHg 82%
    05:00 -11°C° 0 mm 6 mps 741 mmHg 81%
    06:00 -11°C° 0 mm 6 mps 741 mmHg 81%
    07:00 -11°C° 0 mm 6 mps 741 mmHg 81%
    08:00 -11°C° 0 mm 6 mps 741 mmHg 80%
    09:00 -10°C° 0 mm 6 mps 741 mmHg 78%
    10:00 -9°C° 0 mm 7 mps 741 mmHg 75%
    11:00 -8°C° 0 mm 7 mps 741 mmHg 72%
    12:00 -8°C° 0 mm 7 mps 741 mmHg 71%
    13:00 -8°C° 0 mm 6 mps 741 mmHg 71%
    14:00 -6°C° 0 mm 6 mps 741 mmHg 70%
    15:00 -8°C° 0 mm 6 mps 741 mmHg 72%
    16:00 -8°C° 0 mm 5 mps 741 mmHg 75%
    17:00 -10°C° 0 mm 5 mps 741 mmHg 78%
    18:00 -10°C° 0 mm 5 mps 741 mmHg 80%
    19:00 -11°C° 0 mm 5 mps 741 mmHg 81%
    20:00 -12°C° 0 mm 5 mps 741 mmHg 83%
    21:00 -12°C° 0 mm 5 mps 742 mmHg 85%
    22:00 -12°C° 0 mm 5 mps 742 mmHg 87%
    23:00 -12°C° 0 mm 5 mps 742 mmHg 89%

    27 January, Saturday

    Time Temperature Precipitation Wind Pressure Humidity
    00:00 -12°C° 0 mm 5 mps 742 mmHg 90%
    01:00 -12°C° 0 mm 5 mps 742 mmHg 92%
    02:00 -12°C° 0 mm 5 mps 742 mmHg 93%
    03:00 -12°C° 0 mm 5 mps 742 mmHg 94%
    04:00 -12°C° 0 mm 5 mps 742 mmHg 94%
    05:00 -11°C° 0 mm 4 mps 742 mmHg 95%
    06:00 -12°C° 0 mm 5 mps 742 mmHg 95%
    07:00 -11°C° 0 mm 5 mps 743 mmHg 95%
    08:00 -11°C° 0 mm 5 mps 743 mmHg 95%
    09:00 -11°C° 0 mm 5 mps 743 mmHg 94%
    10:00 -10°C° 0 mm 5 mps 744 mmHg 93%
    11:00 -8°C° 0 mm 5 mps 744 mmHg 92%
    12:00 -8°C° 0 mm 5 mps 744 mmHg 91%
    13:00 -7°C° 0 mm 5 mps 744 mmHg 90%
    14:00 -6°C° 0 mm 5 mps 744 mmHg 89%
    15:00 -6°C° 0 mm 5 mps 744 mmHg 90%
    16:00 -7°C° 0 mm 4 mps 744 mmHg 91%
    17:00 -6°C° 0 mm 3 mps 745 mmHg 92%
    18:00 -6°C° 0 mm 3 mps 745 mmHg 93%
    19:00 -6°C° 0 mm 3 mps 745 mmHg 94%
    20:00 -6°C° 0 mm 3 mps 745 mmHg 94%
    21:00 -7°C° 0 mm 4 mps 746 mmHg 94%
    22:00 -7°C° 0 mm 4 mps 746 mmHg 94%
    23:00 -7°C° 0 mm 4 mps 746 mmHg 94%

    28 January, Sunday

    Time Temperature Precipitation Wind Pressure Humidity
    00:00 -6°C° 0 mm 3 mps 746 mmHg 94%
    01:00 -6°C° 0 mm 3 mps 746 mmHg 95%
    02:00 -6°C° 0 mm 3 mps 746 mmHg 95%
    03:00 -6°C° 0 mm 3 mps 746 mmHg 95%
    04:00 -5°C° 0 mm 2 mps 746 mmHg 95%
    05:00 -5°C° 0 mm 2 mps 746 mmHg 96%
    06:00 -5°C° 0 mm 2 mps 746 mmHg 96%
    07:00 -5°C° 0 mm 2 mps 746 mmHg 96%
    08:00 -5°C° 0 mm 2 mps 746 mmHg 96%
    09:00 -5°C° 0 mm 2 mps 746 mmHg 95%
    10:00 -4°C° 0 mm 2 mps 747 mmHg 94%
    11:00 -3°C° 0 mm 2 mps 747 mmHg 94%
    12:00 -2°C° 0 mm 2 mps 746 mmHg 94%
    13:00 -2°C° 0 mm 2 mps 746 mmHg 95%
    14:00 -1°C° 0 mm 2 mps 746 mmHg 96%
    15:00 -1°C° 0 mm 2 mps 745 mmHg 96%
    16:00 -1°C° 0 mm 2 mps 745 mmHg 96%
    17:00 -2°C° 0 mm 2 mps 745 mmHg 97%
    18:00 -2°C° 0 mm 3 mps 744 mmHg 96%
    19:00 -1°C° 0 mm 3 mps 744 mmHg 96%
    20:00 -1°C° 0 mm 3 mps 744 mmHg 96%
    21:00 -2°C° 0 mm 3 mps 744 mmHg 96%
    22:00 -3°C° 0 mm 4 mps 743 mmHg 96%
    23:00 -3°C° 0 mm 4 mps 743 mmHg 95%

    29 January, Monday

    Time Temperature Precipitation Wind Pressure Humidity
    00:00 -3°C° 0 mm 4 mps 743 mmHg 94%
    01:00 -3°C° 0 mm 4 mps 742 mmHg 93%
    02:00 -4°C° 0 mm 5 mps 742 mmHg 91%
    03:00 -2°C° 0 mm 5 mps 741 mmHg 89%
    04:00 -3°C° 0 mm 6 mps 741 mmHg 87%
    05:00 -2°C° 0 mm 6 mps 741 mmHg 85%
    06:00 -2°C° 0 mm 6 mps 741 mmHg 86%
    07:00 -2°C° 0 mm 6 mps 741 mmHg 87%
    08:00 -2°C° 0 mm 6 mps 741 mmHg 87%
    09:00 -2°C° 0 mm 6 mps 741 mmHg 89%
    10:00 -1°C° 0 mm 6 mps 741 mmHg 90%
    11:00 -1°C° 0 mm 6 mps 741 mmHg 91%
    12:00 -1°C° 0 mm 6 mps 741 mmHg 92%
    13:00 -1°C° 0 mm 6 mps 740 mmHg 93%
    14:00 0°C° 0 mm 5 mps 740 mmHg 93%
    15:00 0°C° 0.1 mm 5 mps 740 mmHg 94%
    16:00 0°C° 0.1 mm 5 mps 740 mmHg 94%
    17:00 0°C° 0.1 mm 5 mps 740 mmHg 94%
    18:00 +1°C° 0.2 mm 5 mps 740 mmHg 94%
    19:00 +1°C° 0.2 mm 6 mps 740 mmHg 93%
    20:00 +1°C° 0.2 mm 6 mps 740 mmHg 93%
    21:00 +1°C° 0 mm 6 mps 740 mmHg 93%
    22:00 +1°C° 0 mm 5 mps 740 mmHg 93%
    23:00 +1°C° 0 mm 5 mps 740 mmHg 92%
    Show more